• In Deutschland
  • Länderverzeichnis
  • Für 7 Tage
  • Wassertemperatur
  • Satellitenkarten
  • Wetterkarte
  • Widgets
  • user-avatar
    Anmelden

    Stündliche Wetter Esslingen

    Heute, 19 Oktober, Donnerstag

    Zeit Temperatur Niederschläge Wind Luftdruck Luftfeuchtigkeit
    00:00 +12°C° 0 mm 1 m/S 731 mmHg 74%
    01:00 +12°C° 0 mm 1 m/S 731 mmHg 75%
    02:00 +12°C° 0 mm 1 m/S 730 mmHg 74%
    03:00 +12°C° 0 mm 1 m/S 730 mmHg 74%
    04:00 +12°C° 0 mm 1 m/S 730 mmHg 74%
    05:00 +12°C° 0 mm 1 m/S 730 mmHg 72%
    06:00 +12°C° 0 mm 1 m/S 730 mmHg 71%
    07:00 +11°C° 0 mm 1 m/S 730 mmHg 71%
    08:00 +13°C° 0 mm 1 m/S 731 mmHg 67%
    09:00 +15°C° 0 mm 1 m/S 731 mmHg 63%
    10:00 +18°C° 0 mm 1 m/S 731 mmHg 59%
    11:00 +19°C° 0 mm 1 m/S 731 mmHg 54%
    12:00 +21°C° 0 mm 1 m/S 731 mmHg 50%
    13:00 +23°C° 0 mm 1 m/S 731 mmHg 45%
    14:00 +22°C° 0 mm 1 m/S 730 mmHg 49%
    15:00 +22°C° 0 mm 1 m/S 730 mmHg 54%
    16:00 +22°C° 0 mm 1 m/S 730 mmHg 58%
    17:00 +20°C° 0 mm 1 m/S 730 mmHg 62%
    18:00 +18°C° 0 mm 1 m/S 730 mmHg 67%
    19:00 +15°C° 0 mm 1 m/S 730 mmHg 72%
    20:00 +14°C° 0 mm 1 m/S 730 mmHg 73%
    21:00 +14°C° 0 mm 1 m/S 730 mmHg 74%
    22:00 +13°C° 0 mm 1 m/S 730 mmHg 76%
    23:00 +13°C° 0 mm 1 m/S 730 mmHg 75%

    Morgen, 20 Oktober, Freitag

    Zeit Temperatur Niederschläge Wind Luftdruck Luftfeuchtigkeit
    00:00 +13°C° 0 mm 1 m/S 730 mmHg 74%
    01:00 +13°C° 0 mm 1 m/S 730 mmHg 74%
    02:00 +13°C° 0 mm 1 m/S 730 mmHg 73%
    03:00 +13°C° 0 mm 1 m/S 730 mmHg 73%
    04:00 +13°C° 0 mm 1 m/S 730 mmHg 73%
    05:00 +12°C° 0 mm 1 m/S 730 mmHg 74%
    06:00 +12°C° 0 mm 1 m/S 731 mmHg 75%
    07:00 +12°C° 0 mm 2 m/S 731 mmHg 76%
    08:00 +14°C° 0 mm 2 m/S 731 mmHg 73%
    09:00 +15°C° 0 mm 2 m/S 732 mmHg 69%
    10:00 +17°C° 0 mm 2 m/S 732 mmHg 66%
    11:00 +17°C° 0 mm 2 m/S 732 mmHg 64%
    12:00 +18°C° 0 mm 3 m/S 732 mmHg 62%
    13:00 +19°C° 0 mm 4 m/S 732 mmHg 60%
    14:00 +19°C° 0 mm 3 m/S 732 mmHg 64%
    15:00 +18°C° 0 mm 3 m/S 732 mmHg 68%
    16:00 +18°C° 0 mm 3 m/S 732 mmHg 72%
    17:00 +16°C° 0 mm 2 m/S 733 mmHg 78%
    18:00 +15°C° 0 mm 2 m/S 733 mmHg 83%
    19:00 +14°C° 0 mm 2 m/S 733 mmHg 89%
    20:00 +13°C° 0 mm 1 m/S 733 mmHg 89%
    21:00 +13°C° 0 mm 1 m/S 733 mmHg 90%
    22:00 +13°C° 0 mm 1 m/S 733 mmHg 91%
    23:00 +13°C° 0 mm 1 m/S 733 mmHg 91%

    übermorgen, 21 Oktober, Samstag

    Zeit Temperatur Niederschläge Wind Luftdruck Luftfeuchtigkeit
    00:00 +13°C° 0 mm 2 m/S 733 mmHg 90%
    01:00 +12°C° 0 mm 2 m/S 733 mmHg 90%
    02:00 +13°C° 0 mm 2 m/S 733 mmHg 87%
    03:00 +13°C° 0 mm 2 m/S 733 mmHg 85%
    04:00 +13°C° 0 mm 2 m/S 732 mmHg 83%
    05:00 +13°C° 0 mm 2 m/S 732 mmHg 82%
    06:00 +13°C° 0 mm 2 m/S 732 mmHg 82%
    07:00 +13°C° 0 mm 2 m/S 732 mmHg 81%
    08:00 +14°C° 0 mm 3 m/S 732 mmHg 76%
    09:00 +16°C° 0 mm 3 m/S 732 mmHg 71%
    10:00 +18°C° 0 mm 4 m/S 732 mmHg 65%
    11:00 +19°C° 0 mm 4 m/S 732 mmHg 62%
    12:00 +20°C° 0 mm 4 m/S 732 mmHg 59%
    13:00 +21°C° 0 mm 4 m/S 732 mmHg 56%
    14:00 +20°C° 0 mm 3 m/S 732 mmHg 61%
    15:00 +19°C° 0 mm 3 m/S 732 mmHg 66%
    16:00 +18°C° 0 mm 2 m/S 731 mmHg 72%
    17:00 +17°C° 0,1 mm 3 m/S 732 mmHg 78%
    18:00 +16°C° 0,1 mm 3 m/S 732 mmHg 84%
    19:00 +13°C° 0,1 mm 3 m/S 732 mmHg 90%
    20:00 +13°C° 1,1 mm 3 m/S 733 mmHg 90%
    21:00 +12°C° 1,1 mm 3 m/S 733 mmHg 90%
    22:00 +11°C° 1,1 mm 3 m/S 733 mmHg 90%
    23:00 +11°C° 0,6 mm 3 m/S 734 mmHg 90%

    22 Oktober, Sonntag

    Zeit Temperatur Niederschläge Wind Luftdruck Luftfeuchtigkeit
    00:00 +10°C° 0,6 mm 3 m/S 734 mmHg 90%
    01:00 +10°C° 0,6 mm 3 m/S 734 mmHg 90%
    02:00 +10°C° 0,1 mm 3 m/S 734 mmHg 90%
    03:00 +9°C° 0,1 mm 3 m/S 734 mmHg 91%
    04:00 +9°C° 0,1 mm 3 m/S 734 mmHg 91%
    05:00 +9°C° 0 mm 3 m/S 734 mmHg 91%
    06:00 +8°C° 0 mm 3 m/S 734 mmHg 92%
    07:00 +8°C° 0 mm 3 m/S 733 mmHg 92%
    08:00 +9°C° 0,1 mm 3 m/S 734 mmHg 87%
    09:00 +8°C° 0,1 mm 4 m/S 734 mmHg 83%
    10:00 +10°C° 0,1 mm 4 m/S 734 mmHg 79%
    11:00 +10°C° 0,2 mm 4 m/S 734 mmHg 76%
    12:00 +11°C° 0,2 mm 4 m/S 734 mmHg 73%
    13:00 +11°C° 0,2 mm 4 m/S 734 mmHg 70%
    14:00 +11°C° 0,3 mm 4 m/S 734 mmHg 71%
    15:00 +11°C° 0,3 mm 3 m/S 734 mmHg 73%
    16:00 +10°C° 0,3 mm 3 m/S 734 mmHg 74%
    17:00 +9°C° 0,1 mm 3 m/S 734 mmHg 78%
    18:00 +8°C° 0,1 mm 3 m/S 734 mmHg 82%
    19:00 +7°C° 0,1 mm 3 m/S 735 mmHg 86%
    20:00 +7°C° 0 mm 3 m/S 735 mmHg 87%
    21:00 +7°C° 0 mm 3 m/S 735 mmHg 89%
    22:00 +7°C° 0 mm 3 m/S 735 mmHg 90%
    23:00 +7°C° 0,1 mm 3 m/S 736 mmHg 90%

    23 Oktober, Montag

    Zeit Temperatur Niederschläge Wind Luftdruck Luftfeuchtigkeit
    00:00 +7°C° 0,1 mm 3 m/S 736 mmHg 90%
    01:00 +7°C° 0,1 mm 3 m/S 736 mmHg 90%
    02:00 +6°C° 0,1 mm 4 m/S 736 mmHg 90%
    03:00 +6°C° 0,1 mm 4 m/S 736 mmHg 90%
    04:00 +6°C° 0,1 mm 4 m/S 736 mmHg 91%
    05:00 +6°C° 0,1 mm 4 m/S 736 mmHg 91%
    06:00 +6°C° 0,1 mm 4 m/S 737 mmHg 91%
    07:00 +6°C° 0,1 mm 4 m/S 737 mmHg 92%
    08:00 +7°C° 0,2 mm 4 m/S 738 mmHg 90%
    09:00 +7°C° 0,2 mm 4 m/S 738 mmHg 89%
    10:00 +8°C° 0,2 mm 4 m/S 739 mmHg 88%
    11:00 +8°C° 0 mm 4 m/S 739 mmHg 85%
    12:00 +10°C° 0 mm 4 m/S 739 mmHg 83%
    13:00 +10°C° 0 mm 4 m/S 739 mmHg 80%
    14:00 +10°C° 0 mm 4 m/S 739 mmHg 80%
    15:00 +10°C° 0 mm 3 m/S 739 mmHg 79%
    16:00 +10°C° 0 mm 3 m/S 739 mmHg 79%
    17:00 +10°C° 0,1 mm 3 m/S 739 mmHg 82%
    18:00 +9°C° 0,1 mm 2 m/S 740 mmHg 86%
    19:00 +9°C° 0,1 mm 2 m/S 740 mmHg 89%
    20:00 +9°C° 0,1 mm 2 m/S 740 mmHg 89%
    21:00 +9°C° 0,1 mm 2 m/S 740 mmHg 90%
    22:00 +9°C° 0,1 mm 2 m/S 740 mmHg 90%
    23:00 +9°C° 0,3 mm 2 m/S 740 mmHg 90%

    24 Oktober, Dienstag

    Zeit Temperatur Niederschläge Wind Luftdruck Luftfeuchtigkeit
    00:00 +9°C° 0,3 mm 2 m/S 740 mmHg 91%
    01:00 +9°C° 0,3 mm 2 m/S 740 mmHg 91%
    02:00 +9°C° 0,3 mm 2 m/S 740 mmHg 91%
    03:00 +9°C° 0,3 mm 2 m/S 739 mmHg 92%
    04:00 +9°C° 0,3 mm 2 m/S 739 mmHg 92%
    05:00 +9°C° 0,2 mm 2 m/S 739 mmHg 93%
    06:00 +9°C° 0,2 mm 2 m/S 739 mmHg 93%
    07:00 +9°C° 0,2 mm 2 m/S 739 mmHg 94%
    08:00 +10°C° 0,1 mm 2 m/S 740 mmHg 93%
    09:00 +11°C° 0,1 mm 1 m/S 740 mmHg 92%
    10:00 +12°C° 0,1 mm 1 m/S 740 mmHg 91%
    11:00 +13°C° 0 mm 1 m/S 740 mmHg 88%
    12:00 +14°C° 0 mm 1 m/S 740 mmHg 85%
    13:00 +15°C° 0 mm 1 m/S 740 mmHg 82%
    14:00 +15°C° 0 mm 1 m/S 740 mmHg 83%
    15:00 +14°C° 0 mm 0 m/S 740 mmHg 84%
    16:00 +14°C° 0 mm 0 m/S 740 mmHg 84%
    17:00 +14°C° 0 mm 1 m/S 740 mmHg 88%
    18:00 +13°C° 0 mm 1 m/S 740 mmHg 91%
    19:00 +12°C° 0 mm 1 m/S 740 mmHg 94%
    20:00 +11°C° 0 mm 1 m/S 740 mmHg 95%
    21:00 +11°C° 0 mm 1 m/S 740 mmHg 95%
    22:00 +10°C° 0 mm 1 m/S 740 mmHg 96%
    23:00 +10°C° 0 mm 1 m/S 740 mmHg 96%
    Mehr zeigen